Stations météo

réclame
Mon MeteoGroup
Quimper, France (7201): Température de l'air & dewpoint: 09.08.2018 01:00:00 - 15.08.2018 01:00:00 (CEST)Quimper, France (7201): Température de l'air 5cm: 09.08.2018 01:00:00 - 15.08.2018 01:00:00 (CEST)Quimper, France (7201): Température de l'air -20cm: 09.08.2018 01:00:00 - 15.08.2018 01:00:00 (CEST)Quimper, France (7201): Vitesse du vent & gusts: 09.08.2018 01:00:00 - 15.08.2018 01:00:00 (CEST)Quimper, France (7201): Direction du vent: 09.08.2018 01:00:00 - 15.08.2018 01:00:00 (CEST)Quimper, France (7201): reduced air pressure: 09.08.2018 01:00:00 - 15.08.2018 01:00:00 (CEST)Quimper, France (7201): visibility: 09.08.2018 01:00:00 - 15.08.2018 01:00:00 (CEST)Quimper, France (7201): Ensoleillement: 09.08.2018 01:00:00 - 15.08.2018 01:00:00 (CEST)Quimper, France (7201): Quantités de précipitations: 09.08.2018 01:00:00 - 15.08.2018 01:00:00 (CEST)
Date & Time tt [°C] td [°C] tt 5cm [°C] tt -20cm [°C] ff [km/h] ff [knt] fx [km/h] fx [knt] dd ppp [hPa] vv [km] sd [min] rr [mm]
15.08.2018 01:00:00 15,9 15,1 15,0 20,2 6 4 14 7 NW 1023,7 16 0 0,0
15.08.2018 00:00:00 16,2 15,2 15,6 20,2 10 5 18 10 NNW 1023,7 14 0 0,0
14.08.2018 23:00:00 16,6 15,5 15,9 20,2 11 6 21 11 NW 1023,6 13 0 0,0
14.08.2018 22:00:00 17,8 16,0 17,5 20,2 13 7 20 11 NW 1023,3 39 0 0,0
14.08.2018 21:00:00 19,0 16,2 18,9 20,1 13 7 22 12 NW 1022,7 60 0 0,0
14.08.2018 20:00:00 19,4 16,4 19,7 20,0 17 9 25 13 NW 1022,5 60 2 0,0
14.08.2018 19:00:00 20,9 17,1 21,6 19,9 10 6 18 10 NW 1022,4 60 0 0,0
14.08.2018 18:00:00 20,9 16,9 21,6 19,8 11 6 25 13 WNW 1022,6 60 1 0,0
14.08.2018 17:00:00 20,7 17,1 21,6 19,7 18 10 25 13 WNW 1022,7 60 2 0,0
14.08.2018 16:00:00 21,4 17,0 23,1 19,6 18 10 26 14 NW 1022,4 56 10 0,0
14.08.2018 15:00:00 22,4 18,2 22,7 19,5 17 9 25 14 NW 1022,2 52 14 0,8
14.08.2018 14:00:00 21,0 17,8 19,5 19,5 13 7 23 13 NW 1021,9 52 6 0,0
14.08.2018 13:00:00 19,3 17,6 19,2 19,4 11 6 17 9 WNW 1021,9 3,1 1 0,0
14.08.2018 12:00:00 18,9 17,0 19,2 19,4 10 5 21 11 WNW 1021,7 51 0 0,0
14.08.2018 11:00:00 18,0 16,7 17,9 19,4 5 3 13 7 W 1021,4 19 0 0,0
14.08.2018 10:00:00 17,3 15,8 16,9 19,5 5 3 16 9 W 1021,1 18 3 0,0
14.08.2018 09:00:00 16,8 15,0 16,5 19,6 11 6 16 9 WNW 1020,7 57 2 0,0
14.08.2018 08:00:00 16,2 14,2 15,6 19,6 7 4 19 10 NW 1020,3 56 4 0,0
14.08.2018 07:00:00 16,4 13,5 15,9 19,7 12 6 28 15 NW 1019,7 60 0 0,0
14.08.2018 06:00:00 15,8 14,2 14,4 19,7 4 2 9 5 WNW 1019,1 58 0 0,0
14.08.2018 05:00:00 16,2 13,9 15,8 19,8 6 4 19 10 NW 1018,8 60 0 0,0
14.08.2018 04:00:00 16,4 14,2 16,1 19,9 13 7 17 9 NW 1018,6 58 0 0,0
14.08.2018 03:00:00 16,4 14,2 16,1 19,9 9 5 18 10 WNW 1018,5 60 0 0,0
14.08.2018 02:00:00 16,3 14,3 15,9 20,0 9 5 16 9 WNW 1018,3 59 0 0,0
14.08.2018 01:00:00 15,6 14,6 14,1 20,1 7 4 14 8 NW 1017,9 59 0 0,0
14.08.2018 00:00:00 14,9 13,8 13,3 20,1 5 3 12 7 WNW 1017,5 48 0 0,0
13.08.2018 23:00:00 15,6 14,0 15,0 20,1 11 6 25 13 NW 1017,0 55 0 0,0
13.08.2018 22:00:00 16,3 14,3 15,9 20,1 15 8 28 15 NW 1016,4 60 9 0,0
13.08.2018 21:00:00 17,8 14,3 17,5 20,0 17 9 26 14 WNW 1015,5 58 58 0,0
13.08.2018 20:00:00 19,1 14,4 20,6 19,9 19 11 35 19 NW 1014,8 60 60 0,0
13.08.2018 19:00:00 20,7 15,0 21,4 19,8 23 12 35 19 WNW 1014,2 60 57 0,0
13.08.2018 18:00:00 21,5 16,0 21,7 19,7 24 13 34 19 WNW 1013,9 60 49 0,0
13.08.2018 17:00:00 20,9 15,9 21,9 19,6 23 12 34 19 NW 1013,5 50 44 0,0
13.08.2018 16:00:00 20,7 15,9 21,8 19,5 19 10 31 17 NW 1013,4 20 18 0,0
13.08.2018 15:00:00 20,1 15,9 19,3 19,4 21 11 28 15 NW 1013,2 54 0 0,4
13.08.2018 14:00:00 18,8 17,1 17,4 19,4 10 6 19 10 W 1012,8 38 4 0,6
13.08.2018 13:00:00 18,5 16,8 17,1 19,3 10 6 25 13 W 1012,6 20 0 1,2
13.08.2018 12:00:00 19,1 16,0 17,9 19,3 14 7 25 14 WNW 1012,2 20 19 0,0
13.08.2018 11:00:00 18,8 16,4 18,1 19,3 14 8 26 14 W 1011,7 49 33 0,0
13.08.2018 10:00:00 18,0 16,5 17,1 19,3 15 8 23 12 WNW 1011,6 49 37 0,0
13.08.2018 09:00:00 16,8 16,3 16,0 19,4 10 5 16 8 W 1011,2 32 19 0,0
13.08.2018 08:00:00 16,2 15,6 15,7 19,4 8 4 18 10 W 1010,5 12 0 0,0
13.08.2018 07:00:00 16,2 15,6 15,5 19,5 10 6 17 9 W 1009,9 20 0 0,0
13.08.2018 06:00:00 16,2 15,6 15,8 19,6 11 6 18 10 W 1009,9 30 0 0,0
13.08.2018 05:00:00 16,2 15,7 15,8 19,6 9 5 18 10 W 1009,9 33 0 0,0
13.08.2018 04:00:00 16,1 15,6 15,5 19,7 10 5 17 9 WSW 1009,9 19 0 0,0
13.08.2018 03:00:00 15,9 15,3 15,4 19,7 10 6 15 8 WSW 1010,0 18 0 0,0
13.08.2018 02:00:00 15,8 15,2 15,4 19,8 9 5 16 9 WSW 1010,2 20 0 0,0
13.08.2018 01:00:00 15,8 15,2 15,3 19,8 10 5 16 9 W 1010,2 46 0 0,0
13.08.2018 00:00:00 16,1 15,3 15,5 19,8 12 7 27 15 W 1010,2 57 0 0,2
12.08.2018 23:00:00 16,3 15,3 15,7 19,9 9 5 16 9 SW 1010,2 2,5 0 0,4
12.08.2018 22:00:00 16,3 14,7 16,2 19,9 9 5 20 11 SW 1010,1 16 0 0,0
12.08.2018 21:00:00 16,6 14,8 16,2 19,8 14 8 23 12 WSW 1009,9 58 16 0,0
12.08.2018 20:00:00 17,0 15,0 16,3 19,7 17 9 28 15 WSW 1009,8 14 0 0,0
12.08.2018 19:00:00 18,3 14,6 18,7 19,7 18 10 32 17 WSW 1009,9 55 1 0,0
12.08.2018 18:00:00 18,9 15,0 19,5 19,6 19 10 29 16 WSW 1009,9 52 19 0,0
12.08.2018 17:00:00 19,3 15,8 19,4 19,4 16 9 29 16 WSW 1010,2 20 0 0,0
12.08.2018 16:00:00 18,6 15,5 19,4 19,3 20 11 34 18 WSW 1010,3 40 0 0,0
12.08.2018 15:00:00 19,3 16,1 20,2 19,3 19 10 35 19 WSW 1010,6 50 25 0,0
12.08.2018 14:00:00 19,4 17,0 19,5 19,3 23 12 33 18 W 1011,0 60 17 0,0
12.08.2018 13:00:00 18,3 18,0 18,2 19,3 14 7 41 22 W 1010,8 8 0 0,6
12.08.2018 12:00:00 18,4 18,1 18,1 19,3 18 10 41 22 S 1010,7 2,9 0 4,1
12.08.2018 11:00:00 18,3 17,8 17,8 19,3 16 9 41 22 SSW 1011,0 6 0 5,6
12.08.2018 10:00:00 18,1 17,6 17,5 19,4 18 10 32 17 S 1011,5 3,2 0 4,7
12.08.2018 09:00:00 18,1 17,5 17,5 19,4 16 9 29 16 S 1012,0 12 0 0,4
12.08.2018 08:00:00 18,0 17,2 17,3 19,5 14 7 24 13 S 1012,5 19 0 0,0
12.08.2018 07:00:00 17,9 16,6 17,2 19,5 12 7 23 12 S 1012,8 14 0 0,8
12.08.2018 06:00:00 18,1 16,1 17,5 19,6 14 7 24 13 S 1013,8 46 0 0,0
12.08.2018 05:00:00 17,6 15,6 16,8 19,7 11 6 21 11 S 1014,8 56 0 0,0
12.08.2018 04:00:00 17,1 15,4 16,5 19,7 9 5 18 10 S 1015,5 53 0 0,0
12.08.2018 03:00:00 16,8 15,1 16,3 19,8 9 5 14 8 S 1016,2 55 0 0,0
12.08.2018 02:00:00 16,7 15,1 16,3 19,9 10 6 16 8 S 1017,1 59 0 0,0
12.08.2018 01:00:00 16,8 15,0 16,2 19,9 9 5 17 9 S 1018,0 60 0 0,0
12.08.2018 00:00:00 16,6 14,4 16,2 19,9 10 5 17 9 S 1018,8 60 0 0,0
11.08.2018 23:00:00 16,8 14,3 16,2 20,0 9 5 16 8 S 1019,5 60 0 0,0
11.08.2018 22:00:00 17,1 14,0 16,4 19,9 8 4 17 9 S 1019,8 2,4 11 0,0
11.08.2018 21:00:00 18,3 14,0 18,3 19,8 11 6 26 14 S 1020,0 60 6 0,0
11.08.2018 20:00:00 19,4 12,9 20,0 19,7 16 8 29 16 SSW 1020,7 58 31 0,0
11.08.2018 19:00:00 21,0 12,9 22,5 19,5 15 8 34 18 S 1021,0 52 44 0,0
11.08.2018 18:00:00 21,7 13,6 22,7 19,4 18 10 34 18 SSW 1021,5 60 48 0,0
11.08.2018 17:00:00 20,7 12,7 22,5 19,2 21 11 39 21 SSW 1022,2 60 11 0,0
11.08.2018 16:00:00 21,6 13,8 23,2 19,0 22 12 39 21 S 1022,8 59 44 0,0
11.08.2018 15:00:00 21,2 13,9 23,5 18,9 20 11 38 20 S 1023,1 20 42 0,0
11.08.2018 14:00:00 20,7 12,9 22,9 18,8 14 8 34 18 S 1023,4 59 39 0,0
11.08.2018 13:00:00 20,2 13,6 21,5 18,8 16 8 34 19 SSW 1023,7 43 23 0,0
11.08.2018 12:00:00 20,8 15,3 19,4 18,7 16 9 28 15 SSW 1023,8 49 31 0,0
11.08.2018 11:00:00 18,5 14,4 19,5 18,8 14 7 27 14 SSW 1024,0 50 6 0,2
11.08.2018 10:00:00 18,4 15,5 19,1 18,8 10 5 21 12 SSW 1024,2 41 28 0,0
11.08.2018 09:00:00 16,3 16,0 15,3 18,8 5 3 11 6 S 1024,3 20 16 0,0
11.08.2018 08:00:00 14,7 14,4 14,2 18,9 3 2 7 4 SSW 1024,6 18 0 0,0
11.08.2018 07:00:00 14,4 14,1 13,2 19,0 5 3 7 4 SSW 1024,4 7 0 0,0
11.08.2018 06:00:00 13,8 13,5 12,3 19,1 3 1 5 3 SSE 1024,6 9 0 0,0
11.08.2018 05:00:00 13,7 13,4 12,8 19,2 3 2 4 2 NE 1024,9 11 0 0,0
11.08.2018 04:00:00 13,9 13,6 12,0 19,3 3 2 6 3 SSW 1025,0 12 0 0,0
11.08.2018 03:00:00 13,5 13,0 12,0 19,4 0 0 2 1 N 1025,4 6 0 0,0
11.08.2018 02:00:00 13,5 13,0 10,0 19,5 0 0 3 2 N 1025,8 14 0 0,0
11.08.2018 01:00:00 13,1 12,3 9,9 19,5 0 0 6 3 N 1025,9 0,5 0 0,0
11.08.2018 00:00:00 13,9 12,8 11,7 19,6 4 2 8 4 WSW 1025,7 16 0 0,0
10.08.2018 23:00:00 14,4 12,8 12,8 19,6 6 3 8 5 W 1025,5 33 0 0,0
10.08.2018 22:00:00 15,6 13,1 14,6 19,6 6 3 22 12 WSW 1025,3 44 11 0,0
10.08.2018 21:00:00 17,3 13,4 17,3 19,5 16 8 25 14 W 1024,7 47 41 0,0
10.08.2018 20:00:00 18,3 13,6 18,5 19,4 18 10 34 18 W 1024,5 48 38 0,0
10.08.2018 19:00:00 18,4 13,3 19,0 19,3 21 12 40 21 W 1024,4 57 20 0,0
10.08.2018 18:00:00 19,2 13,4 20,5 19,2 25 14 45 25 W 1024,2 29 40 0,0
10.08.2018 17:00:00 19,7 13,2 19,9 19,1 27 14 47 25 W 1024,3 60 25 0,0
10.08.2018 16:00:00 19,5 12,3 19,3 19,0 27 15 43 23 WSW 1024,3 20 30 0,0
10.08.2018 15:00:00 18,5 12,5 19,1 18,9 24 13 49 26 W 1024,5 37 3 0,0
10.08.2018 14:00:00 19,0 12,3 20,5 18,9 27 14 44 24 W 1024,2 57 26 0,0
10.08.2018 13:00:00 19,2 12,5 18,4 18,9 24 13 37 20 WSW 1024,2 20 24 0,0
10.08.2018 12:00:00 16,8 12,1 16,3 18,9 25 14 48 26 WSW 1024,2 18 13 0,0
10.08.2018 11:00:00 17,4 12,5 18,0 19,0 16 9 27 15 WSW 1023,9 46 8 0,0
10.08.2018 10:00:00 15,3 14,3 14,5 19,1 7 4 13 7 SW 1023,8 48 9 0,0
10.08.2018 09:00:00 12,8 12,5 13,5 19,2 2 1 8 4 S 1023,4 34 36 0,0
10.08.2018 08:00:00 11,2 10,9 7,1 19,4 0 0 0 0 N 1023,3 15 31 0,0
10.08.2018 07:00:00 9,8 9,3 5,8 19,6 0 0 0 0 N 1023,3 11 0 0,0
10.08.2018 06:00:00 10,1 9,6 5,9 19,8 0 0 3 2 N 1023,1 0,5 0 0,0
10.08.2018 05:00:00 9,9 9,1 7,5 19,9 4 2 6 3 WSW 1023,1 16 0 0,0
10.08.2018 04:00:00 10,2 9,3 7,9 20,0 6 3 8 4 W 1023,2 37 0 0,0
10.08.2018 03:00:00 11,1 9,8 9,2 20,2 6 3 10 6 W 1023,1 45 0 0,0
10.08.2018 02:00:00 11,4 10,0 9,5 20,3 7 4 16 8 W 1023,2 57 0 0,0
10.08.2018 01:00:00 11,0 9,4 9,4 20,4 8 4 11 6 W 1023,1 60 0 0,0
10.08.2018 00:00:00 12,6 10,1 10,7 20,5 8 4 11 6 WSW 1022,7 60 0 0,0
09.08.2018 23:00:00 12,2 9,4 10,5 20,5 7 4 13 7 W 1022,4 60 0 0,0
09.08.2018 22:00:00 13,7 9,9 12,5 20,5 9 5 24 13 W 1021,7 60 6 0,0
09.08.2018 21:00:00 16,4 10,5 16,8 20,5 12 6 36 19 W 1021,1 57 49 0,0
09.08.2018 20:00:00 17,1 10,5 17,2 20,5 19 10 40 22 W 1020,7 59 47 0,0
09.08.2018 19:00:00 18,7 9,7 19,6 20,4 28 15 43 23 W 1020,3 45 57 0,0
09.08.2018 18:00:00 19,8 10,2 18,2 20,2 24 13 36 20 W 1019,9 50 29 0,0
09.08.2018 17:00:00 17,9 10,0 18,1 20,1 18 10 41 22 W 1019,8 60 24 0,0
09.08.2018 16:00:00 20,4 10,2 19,6 20,0 22 12 39 21 WNW 1019,2 60 44 0,0
09.08.2018 15:00:00 19,9 9,2 20,4 19,9 24 13 42 23 WNW 1018,8 60 51 0,0
09.08.2018 14:00:00 19,1 10,6 19,0 19,9 29 15 45 24 WNW 1018,4 58 50 0,0
09.08.2018 13:00:00 17,8 11,4 18,3 19,9 19 10 29 16 NW 1018,0 56 42 0,0
09.08.2018 12:00:00 17,5 11,7 17,9 19,9 19 11 33 18 NW 1017,6 53 31 0,0
09.08.2018 11:00:00 16,3 12,6 16,1 20,0 14 8 27 15 NNW 1017,1 53 0 0,0
09.08.2018 10:00:00 15,5 12,8 14,8 20,1 14 7 23 13 NNW 1016,1 45 0 0,0
09.08.2018 09:00:00 14,5 12,7 13,6 20,2 14 8 24 13 NNW 1015,6 60 0 0,0
09.08.2018 08:00:00 14,2 13,4 13,5 20,3 14 7 23 13 NNW 1014,9 55 0 0,0
09.08.2018 07:00:00 14,0 13,5 13,2 20,4 8 4 16 8 NW 1014,4 15 0 0,0
09.08.2018 06:00:00 13,6 13,1 12,8 20,5 7 4 12 6 WNW 1014,3 36 0 0,2
09.08.2018 05:00:00 14,1 13,6 13,7 20,6 6 3 10 5 NW 1014,2 18 0 0,0
09.08.2018 04:00:00 14,3 13,8 13,5 20,6 5 3 6 3 WSW 1014,9 12 0 0,0
09.08.2018 03:00:00 14,4 13,8 13,7 20,7 0 0 5 3 N 1014,7 12 0 0,0
09.08.2018 02:00:00 14,4 13,6 13,7 20,8 0 0 7 4 N 1015,4 15 0 0,2
09.08.2018 01:00:00 14,7 13,6 13,7 20,9 4 2 8 4 NNE 1015,6 14 0 0,4

tt = Température de l'air
td = dewpoint
tt 5cm = Température de l'air 5cm
tt -20cm = Température de l'air -20cm
ff = Vitesse du vent
fx = gusts
dd = Direction du vent
ppp = reduced air pressure
vv = visibility
sd = Ensoleillement
rr = Quantités de précipitations

stations d'obs. à proximité